GW2280 Weather Reports


Display with metric or nautical units.
time (UTC)temp
F
wind
direction
speed
MPH
gust
MPH
rain 1hr
in
rain 24hr
in
rain mn
in
humidity
%
barometer
mb
20260831231027 66 360 1.0 8.0 0.00 0.01 0.00 74 1020.6
20260831230521 66 360 2.0 6.0 0.00 0.01 0.00 73 1020.7
20260831230041 67 360 1.0 8.0 0.00 0.01 0.00 73 1020.7
20260831225516 67 360 2.0 9.0 0.00 0.01 0.00 72 1020.7
20260831225018 67 360 3.0 9.0 0.00 0.01 0.00 72 1020.7
20260831224537 67 360 3.0 10.0 0.00 0.01 0.00 73 1020.7
20260831224016 67 176 4.0 10.0 0.00 0.01 0.00 72 1020.6
20260831223518 68 360 4.0 9.0 0.00 0.01 0.00 71 1020.6
20260831223041 68 154 3.0 9.0 0.00 0.01 0.00 71 1020.7
20260831222520 68 169 1.0 8.0 0.00 0.01 0.00 70 1020.6
20260831222019 68 173 3.0 8.0 0.00 0.01 0.00 69 1020.7
20260831221539 69 0 1.0 10.0 0.00 0.01 0.00 69 1020.7
20260831221019 69 153 2.0 10.0 0.00 0.01 0.00 68 1020.7
20260831220517 69 170 4.0 10.0 0.00 0.01 0.00 67 1020.6
20260831220034 69 182 3.0 10.0 0.00 0.01 0.00 67 1020.6
20260831215523 69 165 2.0 12.0 0.00 0.01 0.00 67 1020.5
20260831215017 69 137 4.0 12.0 0.00 0.01 0.00 67 1020.5
20260831214547 69 126 7.0 12.0 0.00 0.01 0.00 66 1020.4
20260831214019 70 167 7.0 12.0 0.00 0.01 0.00 67 1020.4
20260831213516 70 180 5.0 11.0 0.00 0.01 0.00 66 1020.6
20260831213035 70 130 4.0 11.0 0.00 0.01 0.00 65 1020.6
20260831212519 71 146 4.0 12.0 0.00 0.01 0.00 64 1020.6
20260831212020 71 92 4.0 16.0 0.00 0.01 0.00 64 1020.5
20260831211535 72 122 5.0 16.0 0.00 0.01 0.00 62 1020.5
20260831211016 72 133 5.0 13.0 0.00 0.01 0.00 62 1020.6
20260831210517 72 146 2.0 11.0 0.00 0.01 0.00 63 1020.7
20260831210038 72 184 3.0 10.0 0.00 0.01 0.00 62 1020.7
20260831205518 72 159 5.0 10.0 0.00 0.01 0.00 61 1020.6
20260831205016 72 139 3.0 14.0 0.00 0.01 0.00 62 1020.6
20260831204535 72 131 3.0 14.0 0.00 0.01 0.00 61 1020.6
20260831204021 72 163 3.0 11.0 0.00 0.01 0.00 62 1020.6
20260831203519 72 181 4.0 10.0 0.00 0.01 0.00 62 1020.7
20260831203037 73 134 5.0 10.0 0.00 0.01 0.00 61 1020.7
20260831202516 73 135 5.0 13.0 0.00 0.01 0.00 60 1020.7
20260831202018 73 160 5.0 13.0 0.00 0.01 0.00 60 1020.8
20260831201535 74 117 3.0 12.0 0.00 0.01 0.00 58 1020.7
20260831201021 74 156 3.0 12.0 0.00 0.01 0.00 57 1020.6
20260831200520 75 0 4.0 12.0 0.00 0.01 0.00 55 1020.6
20260831200036 75 0 2.0 9.0 0.00 0.01 0.00 49 1020.5
20260831195518 75 0 0.0 6.0 0.00 0.01 0.00 43 1020.6
20260831195019 75 273 1.0 9.0 0.00 0.01 0.00 46 1020.7
20260831194536 75 0 2.0 9.0 0.00 0.01 0.00 46 1020.8
20260831194017 75 315 3.0 9.0 0.00 0.01 0.00 47 1021.0
20260831193517 75 268 1.0 7.0 0.00 0.01 0.00 47 1021.1
20260831193104 75 338 2.0 10.0 0.00 0.01 0.00 46 1021.1
20260831192516 75 228 2.0 10.0 0.00 0.01 0.00 44 1021.1
20260831192019 76 223 2.0 7.0 0.00 0.01 0.00 43 1021.3
20260831191538 76 216 1.0 11.0 0.00 0.01 0.00 42 1021.2
20260831191018 76 189 2.0 11.0 0.00 0.01 0.00 43 1021.3
20260831190521 76 257 6.0 14.0 0.00 0.01 0.00 42 1021.3
20260831190043 76 288 4.0 14.0 0.00 0.01 0.00 41 1021.4
20260831185521 76 260 6.0 14.0 0.00 0.01 0.00 42 1021.4
20260831185018 76 306 4.0 13.0 0.00 0.01 0.00 41 1021.4
20260831184536 76 264 7.0 12.0 0.00 0.01 0.00 41 1021.4
20260831184016 76 296 2.0 6.0 0.00 0.01 0.00 41 1021.3
20260831183519 76 0 1.0 7.0 0.00 0.01 0.00 39 1021.3
20260831183044 76 0 1.0 7.0 0.00 0.01 0.00 44 1021.3
20260831182516 76 0 2.0 6.0 0.00 0.01 0.00 45 1021.3
20260831182018 76 0 0.0 6.0 0.00 0.01 0.00 44 1021.4
20260831181549 75 242 0.0 7.0 0.00 0.01 0.00 45 1021.4
20260831181020 75 0 1.0 9.0 0.00 0.01 0.00 45 1021.4
20260831180520 75 164 3.0 9.0 0.00 0.01 0.00 45 1021.4
20260831180039 75 0 0.0 8.0 0.00 0.01 0.00 47 1021.5
20260831175519 75 180 3.0 8.0 0.00 0.01 0.00 47 1021.6
20260831175018 75 86 0.0 8.0 0.00 0.01 0.00 47 1021.5
20260831174536 75 245 3.0 8.0 0.00 0.01 0.00 48 1021.6
20260831174018 74 0 0.0 5.0 0.00 0.01 0.00 50 1021.6
20260831173521 74 230 1.0 8.0 0.00 0.01 0.00 49 1021.7
20260831173036 74 0 0.0 8.0 0.00 0.01 0.00 48 1021.8
20260831172519 74 229 3.0 8.0 0.00 0.01 0.00 50 1021.9
20260831172024 74 0 2.0 8.0 0.00 0.01 0.00 49 1021.8
20260831171537 74 153 1.0 7.0 0.00 0.01 0.00 50 1021.8
20260831171018 74 109 1.0 6.0 0.00 0.01 0.00 46 1021.9
20260831170518 74 0 1.0 7.0 0.00 0.01 0.00 45 1022.0
20260831170036 74 194 2.0 7.0 0.00 0.01 0.00 47 1022.0
20260831165517 74 0 0.0 5.0 0.00 0.01 0.00 44 1022.0
20260831165017 73 0 1.0 4.0 0.00 0.01 0.00 47 1022.0
20260831164554 73 0 0.0 5.0 0.00 0.01 0.00 47 1022.1
20260831164016 73 167 0.0 5.0 0.00 0.01 0.00 44 1022.1
20260831163518 73 0 2.0 6.0 0.00 0.01 0.00 47 1022.2
20260831163033 73 0 0.0 6.0 0.00 0.01 0.00 50 1022.3
20260831162520 72 0 0.0 3.0 0.00 0.01 0.00 47 1022.3
20260831162019 73 0 0.0 2.0 0.00 0.01 0.00 49 1022.4
20260831161556 72 0 0.0 3.0 0.00 0.01 0.00 50 1022.4
20260831161016 72 0 1.0 7.0 0.00 0.01 0.00 49 1022.5
20260831160518 72 0 2.0 7.0 0.00 0.01 0.00 51 1022.5
20260831160042 72 265 3.0 6.0 0.00 0.01 0.00 51 1022.5
20260831155518 72 0 0.0 10.0 0.00 0.01 0.00 51 1022.5
20260831155017 71 276 3.0 10.0 0.00 0.01 0.00 50 1022.5
20260831154611 71 296 5.0 10.0 0.00 0.01 0.00 53 1022.6
20260831154019 71 327 2.0 5.0 0.00 0.01 0.00 56 1022.7
20260831153518 71 0 0.0 5.0 0.00 0.01 0.00 54 1022.7
20260831153035 70 33 0.0 8.0 0.00 0.01 0.00 55 1022.7
20260831152519 70 90 3.0 8.0 0.00 0.01 0.00 56 1022.7
20260831152022 69 88 0.0 9.0 0.00 0.01 0.00 60 1022.8
20260831151538 69 285 2.0 11.0 0.00 0.01 0.00 58 1022.8
20260831151019 69 290 3.0 11.0 0.00 0.01 0.00 59 1022.9
20260831150518 69 51 1.0 11.0 0.00 0.01 0.00 59 1022.9
20260831150040 69 0 1.0 10.0 0.00 0.01 0.00 62 1022.8
20260831145518 69 0 1.0 8.0 0.00 0.01 0.00 61 1022.8
20260831145018 68 338 1.0 7.0 0.00 0.01 0.00 63 1023.0
20260831144535 68 342 1.0 9.0 0.00 0.01 0.00 62 1023.1
20260831144016 68 46 2.0 9.0 0.00 0.01 0.00 63 1023.1
20260831143518 67 78 2.0 10.0 0.00 0.01 0.00 61 1023.1
20260831143036 67 22 3.0 10.0 0.00 0.01 0.00 63 1023.2
20260831142522 68 24 5.0 10.0 0.00 0.01 0.00 63 1023.4
20260831142020 68 27 4.0 9.0 0.00 0.01 0.00 63 1023.4
20260831141536 67 12 0.0 11.0 0.00 0.01 0.00 65 1023.4
20260831141019 67 72 4.0 11.0 0.00 0.01 0.00 64 1023.3
20260831140519 67 67 1.0 6.0 0.00 0.01 0.00 67 1023.3
20260831140037 66 0 0.0 4.0 0.00 0.01 0.00 69 1023.2
20260831135518 67 0 0.0 5.0 0.00 0.01 0.00 70 1023.3
20260831135020 66 271 0.0 6.0 0.00 0.01 0.00 71 1023.3
20260831134534 66 360 2.0 6.0 0.00 0.01 0.00 70 1023.3
20260831134018 66 0 1.0 5.0 0.00 0.01 0.00 73 1023.2
20260831133519 65 0 0.0 6.0 0.00 0.01 0.00 72 1023.1
20260831133034 65 317 2.0 8.0 0.00 0.01 0.00 73 1023.1
20260831132519 64 0 2.0 8.0 0.00 0.01 0.00 77 1023.1
20260831132020 64 300 3.0 8.0 0.00 0.01 0.00 77 1023.1
20260831131553 64 306 1.0 6.0 0.00 0.01 0.00 79 1023.1
20260831131019 63 310 2.0 5.0 0.00 0.01 0.00 77 1023.0
20260831130520 63 298 0.0 4.0 0.00 0.01 0.00 79 1023.0
20260831130043 62 305 1.0 4.0 0.00 0.01 0.00 78 1023.0
20260831125519 61 311 1.0 4.0 0.00 0.01 0.00 81 1023.0
20260831125017 61 284 1.0 4.0 0.00 0.01 0.00 82 1023.0
20260831124540 60 290 1.0 4.0 0.00 0.01 0.00 82 1023.0
20260831124018 59 360 1.0 4.0 0.00 0.01 0.00 84 1023.0
20260831123517 59 298 1.0 4.0 0.00 0.01 0.00 84 1022.9
20260831123037 59 290 1.0 4.0 0.00 0.01 0.00 84 1022.9
20260831122526 59 294 1.0 5.0 0.00 0.01 0.00 84 1022.7
20260831122020 59 0 1.0 5.0 0.00 0.01 0.00 84 1022.8
20260831121538 59 360 1.0 5.0 0.00 0.01 0.00 82 1022.7
20260831121051 59 360 1.0 6.0 0.00 0.01 0.00 82 1022.7
20260831120518 58 360 3.0 6.0 0.00 0.01 0.00 83 1022.6
20260831120035 57 0 1.0 6.0 0.00 0.01 0.00 85 1022.6
20260831115517 56 360 1.0 6.0 0.00 0.01 0.00 86 1022.7
20260831115018 56 360 1.0 4.0 0.00 0.01 0.00 88 1022.6
20260831114534 56 360 1.0 4.0 0.00 0.01 0.00 87 1022.6
20260831114017 55 360 2.0 4.0 0.00 0.01 0.00 87 1022.6
20260831113517 55 0 0.0 1.0 0.00 0.01 0.00 86 1022.7
20260831113042 56 0 0.0 1.0 0.00 0.01 0.00 86 1022.6
20260831112517 56 0 0.0 1.0 0.00 0.01 0.00 85 1022.5
20260831112017 56 0 0.0 3.0 0.00 0.01 0.00 84 1022.5
20260831111542 57 0 0.0 5.0 0.00 0.01 0.00 83 1022.4
20260831111018 57 360 2.0 5.0 0.00 0.01 0.00 81 1022.4
20260831110518 57 360 0.0 10.0 0.00 0.01 0.00 81 1022.4
20260831110035 58 360 1.0 10.0 0.00 0.01 0.00 80 1022.4
20260831105519 57 360 3.0 10.0 0.00 0.01 0.00 79 1022.3
20260831105017 57 360 6.0 10.0 0.00 0.01 0.00 79 1022.3
20260831104537 57 360 6.0 10.0 0.00 0.01 0.00 80 1022.2
20260831104017 57 360 5.0 10.0 0.00 0.01 0.00 81 1022.2
20260831103519 57 360 5.0 10.0 0.00 0.01 0.00 81 1022.1
20260831103033 57 360 6.0 10.0 0.00 0.01 0.00 81 1021.9
20260831102520 57 360 5.0 12.0 0.00 0.01 0.00 81 1021.9
20260831102021 57 360 6.0 12.0 0.00 0.01 0.00 81 1021.8
20260831101539 57 360 6.0 12.0 0.00 0.01 0.00 81 1021.8
20260831101020 57 360 5.0 10.0 0.00 0.01 0.00 82 1021.8
20260831100519 57 360 6.0 11.0 0.00 0.01 0.00 81 1021.8
20260831100045 57 360 6.0 11.0 0.00 0.01 0.00 81 1021.8
20260831095516 57 360 5.0 10.0 0.00 0.01 0.00 81 1021.7
20260831095018 57 360 4.0 11.0 0.00 0.01 0.00 81 1021.6
20260831094543 58 360 5.0 11.0 0.00 0.01 0.00 81 1021.6
20260831094017 58 360 5.0 12.0 0.00 0.01 0.00 80 1021.5
20260831093520 58 360 6.0 12.0 0.00 0.01 0.00 80 1021.4
20260831093050 58 360 6.0 12.0 0.00 0.01 0.00 80 1021.3
20260831092522 58 360 6.0 12.0 0.00 0.01 0.00 80 1021.3
20260831092019 58 360 6.0 12.0 0.00 0.01 0.00 80 1021.2
20260831091534 58 360 6.0 12.0 0.00 0.01 0.00 80 1021.2
20260831091017 58 360 6.0 11.0 0.00 0.01 0.00 79 1021.1
20260831090516 58 360 6.0 12.0 0.00 0.01 0.00 79 1021.1
20260831090035 58 360 7.0 13.0 0.00 0.01 0.00 79 1021.0
20260831085524 58 360 7.0 13.0 0.00 0.01 0.00 79 1021.0
20260831085016 58 360 7.0 15.0 0.00 0.01 0.00 79 1020.9
20260831084534 58 360 8.0 15.0 0.00 0.01 0.00 80 1021.0
20260831084017 59 360 8.0 13.0 0.00 0.01 0.00 79 1020.9
20260831083520 59 360 7.0 13.0 0.00 0.01 0.00 79 1021.0
20260831083055 59 360 6.0 14.0 0.00 0.01 0.00 79 1021.0
20260831082519 59 360 8.0 15.0 0.00 0.01 0.00 79 1020.9
20260831082018 59 360 8.0 15.0 0.00 0.01 0.00 79 1020.8
20260831081534 59 360 7.0 13.0 0.00 0.01 0.00 80 1020.8
20260831081017 59 360 6.0 12.0 0.00 0.01 0.00 80 1020.9
20260831080518 59 360 6.0 12.0 0.00 0.01 0.00 80 1020.9
20260831075516 59 360 6.0 12.0 0.00 0.01 0.00 79 1020.8
20260831075017 59 360 6.0 12.0 0.00 0.01 0.00 79 1020.8
20260831074534 59 360 6.0 12.0 0.00 0.01 0.00 79 1020.8
20260831074017 59 360 6.0 13.0 0.00 0.01 0.00 79 1020.8
20260831073518 59 360 6.0 13.0 0.00 0.01 0.00 79 1020.7
20260831073038 60 360 6.0 14.0 0.00 0.01 0.00 79 1020.7
20260831072519 60 360 7.0 14.0 0.00 0.01 0.00 79 1020.6
20260831072018 60 360 7.0 13.0 0.00 0.01 0.00 79 1020.7
20260831071544 60 360 7.0 13.0 0.00 0.01 0.00 79 1020.7
20260831071019 60 360 6.0 12.0 0.00 0.01 0.00 78 1020.6
20260831070518 60 360 7.0 13.0 0.00 0.01 0.00 78 1020.6
20260831070037 61 360 6.0 13.0 0.00 0.01 0.00 78 1020.7
20260831065520 61 360 5.0 13.0 0.00 0.01 0.00 78 1020.7
20260831065020 61 360 4.0 13.0 0.00 0.01 0.00 78 1020.6
20260831064536 61 360 7.0 13.0 0.00 0.01 0.00 78 1020.5
20260831064018 61 360 7.0 12.0 0.00 0.01 0.00 78 1020.4
20260831063517 61 360 6.0 14.0 0.00 0.01 0.00 78 1020.4
20260831063035 61 360 6.0 14.0 0.00 0.01 0.00 77 1020.4
20260831062518 61 360 6.0 14.0 0.00 0.01 0.00 78 1020.4
20260831062017 61 360 6.0 13.0 0.00 0.01 0.00 78 1020.4
20260831061536 61 360 7.0 13.0 0.00 0.01 0.00 79 1020.5
20260831061020 61 360 6.0 11.0 0.00 0.01 0.00 80 1020.5
20260831060519 60 360 5.0 10.0 0.00 0.01 0.00 81 1020.4
20260831060038 60 360 6.0 12.0 0.00 0.01 0.00 81 1020.3
20260831055519 60 360 5.0 12.0 0.00 0.01 0.00 82 1020.2
20260831055019 60 360 6.0 12.0 0.00 0.01 0.00 83 1020.1
20260831054537 60 360 5.0 11.0 0.00 0.01 0.00 83 1020.0
20260831054018 60 360 5.0 10.0 0.00 0.01 0.00 84 1019.9
20260831053518 60 360 5.0 9.0 0.00 0.01 0.00 84 1020.0
20260831053102 60 360 4.0 9.0 0.00 0.01 0.00 83 1020.0
20260831052518 60 360 4.0 11.0 0.00 0.01 0.00 83 1020.0
20260831052017 60 360 4.0 11.0 0.00 0.01 0.00 83 1019.9
20260831051538 61 360 5.0 12.0 0.00 0.01 0.00 82 1019.8
20260831051019 60 360 6.0 12.0 0.00 0.01 0.00 82 1019.9
20260831050520 60 360 6.0 12.0 0.00 0.01 0.00 82 1019.8
20260831050039 60 360 6.0 12.0 0.00 0.01 0.00 82 1019.7
20260831045521 60 360 6.0 12.0 0.00 0.01 0.00 82 1019.6
20260831045018 61 360 6.0 10.0 0.00 0.01 0.00 82 1019.6
20260831044626 61 360 5.0 10.0 0.00 0.01 0.00 82 1019.7
20260831044017 61 360 6.0 10.0 0.00 0.01 0.00 82 1019.7
20260831043517 61 360 6.0 10.0 0.00 0.01 0.00 82 1019.8
20260831043036 60 360 5.0 9.0 0.00 0.01 0.00 82 1019.8
20260831042521 60 360 4.0 10.0 0.00 0.01 0.00 83 1019.7
20260831042017 60 360 5.0 10.0 0.00 0.01 0.00 83 1019.7
20260831041536 60 360 7.0 10.0 0.00 0.01 0.00 83 1019.7
20260831041019 59 360 5.0 9.0 0.00 0.01 0.00 84 1019.7
20260831040519 59 360 4.0 9.0 0.00 0.01 0.00 86 1019.7
20260831040039 59 360 3.0 6.0 0.00 0.01 0.00 87 1019.6
20260831035517 60 360 3.0 5.0 0.00 0.01 0.01 86 1019.7
20260831035019 60 360 3.0 8.0 0.00 0.01 0.01 86 1019.7
20260831034535 61 360 2.0 8.0 0.00 0.01 0.01 85 1019.7
20260831034018 61 360 3.0 8.0 0.00 0.01 0.01 84 1019.8
20260831033518 61 360 2.0 8.0 0.00 0.01 0.01 84 1019.8
20260831033047 61 360 3.0 6.0 0.00 0.01 0.01 84 1019.8
20260831032521 62 360 2.0 6.0 0.00 0.01 0.01 84 1019.7
20260831032020 62 360 2.0 8.0 0.00 0.01 0.01 84 1019.6
20260831031538 62 360 3.0 10.0 0.00 0.01 0.01 84 1019.7
20260831031019 63 360 4.0 14.0 0.00 0.01 0.01 84 1019.7
20260831030521 63 360 4.0 14.0 0.00 0.01 0.01 83 1019.9
20260831030036 63 360 6.0 14.0 0.00 0.01 0.01 82 1020.0
20260831025517 63 360 2.0 12.0 0.00 0.01 0.01 83 1019.6
20260831025018 63 360 7.0 18.0 0.00 0.01 0.01 84 1020.1
20260831024535 63 360 8.0 18.0 0.00 0.01 0.01 86 1020.0
20260831024016 64 360 9.0 17.0 0.00 0.01 0.01 91 1019.9
20260831023515 64 360 8.0 17.0 0.01 0.01 0.01 93 1019.9
20260831023035 64 360 7.0 16.0 0.01 0.01 0.01 93 1019.7
20260831022520 64 360 6.0 17.0 0.01 0.01 0.01 93 1019.5
20260831022023 64 360 7.0 17.0 0.01 0.01 0.01 92 1019.5
20260831021534 64 360 8.0 15.0 0.01 0.01 0.01 92 1019.5
20260831021019 64 360 8.0 15.0 0.01 0.01 0.01 92 1019.5
20260831020517 64 360 6.0 15.0 0.01 0.01 0.01 91 1019.4
20260831020036 65 360 5.0 14.0 0.01 0.01 0.01 91 1019.1
20260831015517 65 360 6.0 14.0 0.01 0.01 0.01 90 1019.2
20260831015016 65 360 7.0 17.0 0.01 0.01 0.01 89 1019.2
20260831014535 66 360 8.0 19.0 0.01 0.01 0.01 87 1019.1
20260831014022 66 360 7.0 19.0 0.00 0.00 0.00 85 1018.9
20260831013520 67 360 9.0 19.0 0.00 0.00 0.00 84 1019.1
20260831013036 68 360 10.0 20.0 0.00 0.00 0.00 82 1019.1
20260831012519 68 360 11.0 20.0 0.00 0.00 0.00 80 1019.0
20260831012018 68 360 8.0 15.0 0.00 0.00 0.00 79 1018.8
20260831011535 68 360 5.0 9.0 0.00 0.00 0.00 78 1018.8
20260831011017 68 360 5.0 9.0 0.00 0.00 0.00 78 1018.8
20260831010516 68 360 4.0 9.0 0.00 0.00 0.00 77 1018.7
20260831010055 68 360 3.0 8.0 0.00 0.00 0.00 77 1018.6
20260831005517 68 360 3.0 8.0 0.00 0.00 0.00 77 1018.6
20260831005019 68 360 3.0 8.0 0.00 0.00 0.00 76 1018.5
20260831004539 69 360 4.0 9.0 0.00 0.00 0.00 76 1018.4
20260831004020 69 360 3.0 9.0 0.00 0.00 0.00 76 1018.4
20260831003525 69 360 3.0 9.0 0.00 0.00 0.00 76 1018.3
20260831003037 69 360 3.0 10.0 0.00 0.00 0.00 76 1018.2
20260831002516 69 360 4.0 10.0 0.00 0.00 0.00 75 1018.1
20260831002016 69 360 3.0 10.0 0.00 0.00 0.00 75 1018.1
20260831001540 69 360 4.0 10.0 0.00 0.00 0.00 75 1018.1
20260831001018 69 360 5.0 10.0 0.00 0.00 0.00 74 1018.2
20260831000520 69 360 4.0 8.0 0.00 0.00 0.00 74 1018.1
20260831000037 69 360 3.0 8.0 0.00 0.00 0.00 74 1018.0
20260830235517 69 360 3.0 8.0 0.00 0.00 0.00 74 1017.9
20260830235016 69 360 4.0 8.0 0.00 0.00 0.00 74 1017.9
20260830234534 69 360 3.0 8.0 0.00 0.00 0.00 74 1017.8
20260830234018 69 360 3.0 8.0 0.00 0.00 0.00 74 1017.8
20260830233521 69 360 2.0 5.0 0.00 0.00 0.00 74 1017.8
20260830233040 69 360 1.0 6.0 0.00 0.00 0.00 74 1017.7
20260830232520 70 360 3.0 8.0 0.00 0.00 0.00 74 1017.7
20260830232020 70 360 3.0 8.0 0.00 0.00 0.00 74 1017.7
20260830231539 70 360 3.0 8.0 0.00 0.00 0.00 73 1017.8